Regional Weather Roundup
Issued by NWS

Home | Current Version | Previous Version | Text Only | Print | Product List | Glossary Off
Versions: 1 2 3 4 5 6 7 8 9 10 11 12 13 14 15 16 17 18 19 20 21 22 23 24 25 26 27 28

000
ASUS45 KBOU 261807
RWRCO

WEATHER ROUNDUP FOR COLORADO
NATIONAL WEATHER SERVICE DENVER/BOULDER CO
1200 PM MDT WED APR 26 2017

NOTE: "FAIR" INDICATES FEW OR NO CLOUDS BELOW 12000 FEET WITH NO
SIGNIFICANT WEATHER AND/OR OBSTRUCTIONS TO VISIBILITY.

COZ001>005-013-030-031-261900-
...NORTHWEST COLORADO...

CITY           SKY/WX    TMP DP  RH WIND       PRES   REMARKS
CRAIG          PTSUNNY   46  32  58 N8        29.85F
HAYDEN         PTSUNNY   39  28  65 SW9       29.86F
MEEKER         CLOUDY    44  30  57 MISG      29.87F
MOUNT WERNER   NOT AVBL
STEAMBOAT SPGS PTSUNNY   39  29  69 CALM      29.86F
WALDEN           N/A     39  18  41 SW12G20   29.85F
$$

COZ006>008-011-261900-
...WEST CENTRAL VALLEYS...

CITY           SKY/WX    TMP DP  RH WIND       PRES   REMARKS
GRAND JUNCTION FAIR      54  33  45 VRB5      29.89F
MONTROSE       PTSUNNY   50  25  37 E3        29.91F
EAGLE          NOT AVBL
RIFLE          PTSUNNY   51  30  44 VRB5      29.87F
DELTA          PTSUNNY   54  30  38 SE5       29.89F
NUCLA          FAIR      50  23  34 W5        29.95F
$$

COZ017>023-064>068-261900-
...SOUTHWEST COLORADO...

CITY           SKY/WX    TMP DP  RH WIND       PRES   REMARKS
DURANGO        FAIR      52  21  29 SW18G24   29.90F
CORTEZ         FAIR      53  27  36 W6        29.93S
PAGOSA SPRINGS FAIR      46  18  32 SW10      29.92S
TELLURIDE      PTSUNNY   38  24  57 W8        29.99R
WOLF CREEK PAS FAIR      27  16  63 SW12G21   30.01S WCI  16
$$

COZ009-010-012-014-032>034-037-058>063-261900-
...CENTRAL COLORADO...

CITY           SKY/WX    TMP DP  RH WIND       PRES   REMARKS
ASPEN          PTSUNNY   37  32  82 CALM      29.89F HAZE
BUENA VISTA    PTSUNNY   47  11  23 W8G20     29.84F
COPPER MTN     PTSUNNY   25  19  80 W14G24    29.90S WCI  13
BERTHOUD PASS  CLOUDY    16   5  62 NW22G36   29.86R WCI  -2
COTTONWOOD PAS PTSUNNY   43  12  28 CALM      29.88S
GUNNISON       FAIR      44  19  36 SW15G21   29.89F
KREMMLING      PTSUNNY   48  28  46 W6        29.87F
LEADVILLE      CLOUDY    32  18  56 NW13G18   29.88R WCI  22
MONARCH PASS     N/A     21  19  93 SW28G35   30.02S WCI   3
SALIDA         CLOUDY    53  17  24 SW15G22   29.91F
SUNLIGHT       CLOUDY   N/A N/A N/A SW3       29.97S
WILKERSON PASS CLOUDY    30  10  43 W8        29.91S WCI  23
$$

COZ069>075-261900-
...SAN LUIS VALLEY/SANGRE DE CRISTO MOUNTAINS...

CITY           SKY/WX    TMP DP  RH WIND       PRES   REMARKS
ALAMOSA        FAIR      47  25  42 VRB7      29.87F
LA VETA PASS   FAIR      34  28  80 S17G30    30.00S WCI  23
SAGUACHE       PTSUNNY   46  18  31 NW13      29.88F
$$

COZ035-036-038>040-261900-
...NORTHERN COLORADO FRONT RANGE...

CITY           SKY/WX    TMP DP  RH WIND       PRES   REMARKS
DENVER INTL AP FAIR      53  27  36 NE7       29.78F
DMNS CITY PARK   N/A     54  23  30 NE10      29.76F
AURORA         MOSUNNY   53  25  34 CALM      29.78F
FRONT RANGE AP MOSUNNY   50  27  40 NW3       29.80F
ERIE MUNI ARPT FAIR      53  26  35 CALM      29.78F
BOULDER MUN AP FAIR      52  30  43 E6        29.76F
CENTENNIAL     FAIR      52  26  36 VRB7      29.78F
BROOMFIELD     MOSUNNY   54  27  35 W7        29.78F
FORT COLLINS   FAIR      51  28  41 S6        29.78F
LONGMONT       FAIR      55  31  40 CALM      29.79F
$$

COZ041-046-047-076>085-087-088-261900-
...PIKES PEAK/PALMER DIVIDE AND SOUTHERN FOOTHILLS...

CITY           SKY/WX    TMP DP  RH WIND       PRES   REMARKS
COLO. SPRINGS  FAIR      48  30  49 VRB7      29.83F
A. F. ACADEMY  FAIR      47  30  50 S7        29.80F
SCHRIEVER AFB  FAIR      47  29  49 SW9G17    29.82F
ELLICOTT       FAIR     N/A N/A N/A CALM      29.81F
FALCON         FAIR      49  16  26 N6        29.83F
FORT CARSON    FAIR      47  33  57 SE5       29.82F
LIMON          FAIR      50  29  44 N14G22    29.79F
MONUMENT HILL  FAIR      43  32  65 S6        29.83S
TRINIDAD       FAIR      47  35  63 W6        29.84F
$$

COZ042>045-048>051-090-091-261900-
...NORTHEAST COLORADO...

CITY           SKY/WX    TMP DP  RH WIND       PRES   REMARKS
GREELEY ARPT   FAIR      52  31  44 VRB6      29.79F
AKRON          FAIR      50  28  42 N16G24    29.77F
BURLINGTON     NOT AVBL
WRAY           NOT AVBL
STERLING       FAIR      52  30  43 NE8G18    29.75F
HOLYOKE        FAIR      52  32  46 N12G17    29.77F
FORT MORGAN    FAIR      55  26  32 NE3G17    29.77F
$$

COZ086-089-092>099-261900-
...SOUTHEAST COLORADO...

CITY           SKY/WX    TMP DP  RH WIND       PRES   REMARKS
PUEBLO         FAIR      51  34  52 E8        29.81F
LA JUNTA       FAIR      53  36  52 NW10G17   29.81F
LAMAR          FAIR      55  34  45 N15       29.78F
SPRINGFIELD      N/A     51  33  50 N22G33    29.80F
$$




USA.gov is the U.S. government's official web portal to all federal, state and local government web resources and services.